Skip Page Navigation
NASA JPL Caltech
NASA Logo - Jet Propulsion Laboratory + View the NASA Portal
+ Near-Earth Object (NEO) Program
Search JPL
JPL Home Earth Solar System Stars & Galaxies Technology
JPL Solar System Dynamics
BODIES ORBITS EPHEMERIDES TOOLS PHYSICAL DATA DISCOVERY FAQ SITE MAP
JPL Small-Body Database Browser
Search: [ help ]  
129078 Animoo (2004 VL65)
Classification: Main-belt Asteroid          SPK-ID: 2129078
Ephemeris | Orbit Diagram | Orbital Elements | Physical Parameters | Discovery Circumstances ]

[ hide orbit diagram ]
Orbit Diagram
Note: Make sure you have Java enabled on your browser to see the applet. This applet is provided as a 3D orbit visualization tool. The applet was implemented using 2-body methods, and hence should not be used for determining accurate long-term trajectories (over several years or decades) or planetary encounter circumstances. For accurate long-term ephemerides, please instead use our Horizons system.
Orbit Viewer

Additional Notes: the orbits shown in the applet are color coded. The planets are white lines, and the asteroid/comet is a blue line. The bright white line indicates the portion of the orbit that is above the ecliptic plane, and the darker portion is below the ecliptic plane. Likewise for the asteroid/comet orbit, the light blue indicates the portion above the ecliptic plane, and the dark blue the portion below the ecliptic plane.

Orbit Viewer applet originally written and kindly provided by Osamu Ajiki (AstroArts), and further modified by Ron Baalke (JPL).


Orbital Elements at Epoch 2456400.5 (2013-Apr-18.0) TDB
Reference: MPO257593 (heliocentric ecliptic J2000)
 Element Value Uncertainty (1-sigma)   Units 
e 0.1857464 n/a  
a 2.2736691 n/a AU
q 1.8513432 n/a AU
i 3.16564 n/a deg
node 141.17233 n/a deg
peri 181.86695 n/a deg
M 230.11355 n/a deg
tp 2456852.3046190
(2014-Jul-13.80461900)
n/a JED
period 1252.2450406
3.43
n/a
n/a
d
yr
n 0.28748367 n/a deg/d
Q 2.6959950 n/a AU
  Orbit Determination Parameters
   # obs. used (total)      212  
   first obs. used      1996-??-??  
   last obs. used      2013-03-14  
   # oppositions      12  
   planetary ephem.      DE403  
   condition code      0  
   fit RMS      0.49  
   data source      MPC:mpu  
   producer      MPCLINUX  

Additional Information
 T_jup = 3.586 

Ephemeris | Orbit Diagram | Orbital Elements | Physical Parameters | Discovery Circumstances ]

Physical Parameter Table
Parameter Symbol Value Units Sigma Reference Notes
absolute magnitude H 16.6 mag n/a MPO257593  

129078 Animoo           Discovered 2004 Nov. 8 by M. Ory at Vicques.
Laurent "Lillo" Steidle (b. 1972) is a Swiss geologist and painter who was impressed by the richness of colored starfish in the Maldives. These views of coral reefs inspired Lillo's artistic work Animoo, which links animals with the sky.
NOTE: some special characters may not display properly (any characters within {} are an attempt to place the proper accent above a character)
Reference: 20070730/MPCPages.arcLast Updated: 2007-08-07

Alternate Designations
 2004 VL65 = 1999 CW159 
Ephemeris | Orbit Diagram | Orbital Elements | Physical Parameters | Discovery Circumstances ]
ABOUT SSD CREDITS/AWARDS PRIVACY/COPYRIGHT GLOSSARY LINKS
FirstGov 2013-May-18 22:35 UT
(server date/time)  
NASA Home Page
Site Manager:   Donald K. Yeomans
Webmaster  Alan B. Chamberlin